EW5925 Weather Reports


time (UTC)temp
C
wind
direction
speed
KPH
gust
KPH
rain 1hr
cm
rain 24hr
cm
rain mn
cm
humidity
%
barometer
mb
20260904034307 31 61 1.6 14.5 0.00 0.03 0.03 37 1017.2
20260904033759 32 79 3.2 14.5 0.00 0.03 0.03 37 1017.1
20260904033257 32 53 4.8 14.5 0.00 0.03 0.03 36 1017.1
20260904032754 32 60 4.8 11.3 0.00 0.03 0.03 38 1017.2
20260904032252 32 49 4.8 11.3 0.00 0.03 0.03 38 1017.2
20260904031750 33 45 3.2 11.3 0.00 0.03 0.03 34 1017.2
20260904031514 33 324 1.6 11.3 0.00 0.03 0.03 29 1017.3
20260904031332 33 324 1.6 11.3 0.00 0.03 0.03 29 1017.3
20260904030747 33 195 1.6 11.3 0.00 0.03 0.03 29 1017.4
20260904030245 33 243 1.6 6.4 0.00 0.03 0.03 29 1017.5
20260904030001 33 254 3.2 8.0 0.00 0.03 0.03 28 1017.5
20260904025236 32 313 3.2 11.3 0.00 0.03 0.03 31 1017.6
20260904024735 32 106 1.6 11.3 0.00 0.03 0.03 28 1017.6
20260904024236 32 206 4.8 14.5 0.00 0.03 0.03 30 1017.7
20260904023710 32 278 4.8 14.5 0.00 0.03 0.03 32 1017.8
20260904023212 32 310 3.2 8.0 0.00 0.03 0.03 32 1017.9
20260904022710 32 14 1.6 8.0 0.00 0.03 0.03 32 1018.0
20260904022428 32 82 3.2 11.3 0.00 0.03 0.03 33 1018.0
20260904021704 32 120 1.6 11.3 0.00 0.03 0.03 32 1018.1
20260904021202 31 118 3.2 12.9 0.00 0.03 0.03 34 1018.2
20260904020700 31 185 3.2 12.9 0.00 0.03 0.03 33 1018.3
20260904020201 31 233 3.2 8.0 0.00 0.03 0.03 34 1018.4
20260904015659 31 199 3.2 8.0 0.00 0.03 0.03 33 1018.6
20260904015159 31 324 1.6 8.0 0.00 0.03 0.03 33 1018.7
20260904014656 31 234 3.2 12.9 0.00 0.03 0.03 34 1018.8
20260904014155 31 260 3.2 12.9 0.00 0.03 0.03 36 1018.9
20260904013656 31 180 3.2 8.0 0.00 0.03 0.03 37 1019.0
20260904013130 31 233 3.2 8.0 0.00 0.03 0.03 37 1019.1
20260904012605 30 215 3.2 6.4 0.00 0.03 0.03 38 1019.2
20260904012051 30 223 3.2 8.0 0.00 0.03 0.03 38 1019.3
20260904011514 30 114 1.6 11.3 0.00 0.03 0.03 37 1019.4
20260904011227 30 243 3.2 11.3 0.00 0.03 0.03 38 1019.6
20260904010420 30 311 3.2 8.0 0.00 0.03 0.03 40 1019.7
20260904005853 30 223 3.2 8.0 0.00 0.03 0.03 43 1019.8
20260904005327 30 251 3.2 8.0 0.00 0.03 0.03 41 1019.8
20260904004802 29 264 1.6 6.4 0.00 0.03 0.03 42 1020.0
20260904004237 29 254 1.6 4.8 0.00 0.03 0.03 43 1020.0
20260904003711 28 251 1.6 8.0 0.00 0.03 0.03 45 1020.1
20260904003145 28 245 3.2 9.7 0.00 0.03 0.03 45 1020.2
20260904002623 28 240 4.8 14.5 0.00 0.03 0.03 46 1020.2
20260904002059 28 202 3.2 17.7 0.00 0.03 0.03 45 1020.3
20260904001540 27 264 3.2 17.7 0.00 0.03 0.03 46 1020.3
20260904001040 27 262 4.8 17.7 0.00 0.03 0.03 47 1020.4
20260904000809 27 264 4.8 17.7 0.00 0.03 0.03 47 1020.4
20260904000311 27 218 4.8 11.3 0.00 0.03 0.03 48 1020.4
20260903235537 27 233 3.2 11.3 0.00 0.03 0.03 48 1020.4
20260903235256 26 235 3.2 14.5 0.00 0.03 0.03 49 1020.4
20260903234536 26 246 4.8 14.5 0.00 0.03 0.03 50 1020.5
20260903234033 26 258 3.2 12.9 0.00 0.03 0.03 51 1020.4
20260903233534 26 245 3.2 12.9 0.00 0.03 0.03 52 1020.4
20260903233033 25 247 4.8 12.9 0.00 0.03 0.03 54 1020.5
20260903232532 25 249 4.8 16.1 0.00 0.03 0.03 55 1020.5
20260903232032 25 249 4.8 16.1 0.00 0.03 0.03 56 1020.5
20260903231539 24 216 4.8 14.5 0.00 0.03 0.03 59 1020.6
20260903231026 24 281 3.2 8.0 0.00 0.03 0.03 61 1020.6
20260903230524 23 262 3.2 6.4 0.00 0.03 0.03 63 1020.6
20260903230027 23 222 3.2 8.0 0.00 0.03 0.03 64 1020.6
20260903225512 23 214 4.8 16.1 0.00 0.03 0.03 65 1020.6
20260903225457 22 206 4.8 16.1 0.00 0.03 0.03 66 1020.7
20260903224955 22 231 3.2 12.9 0.00 0.03 0.03 66 1020.6
20260903224009 22 214 4.8 14.5 0.00 0.03 0.03 68 1020.6
20260903223728 21 231 4.8 14.5 0.00 0.03 0.03 69 1020.6
20260903223008 21 235 4.8 14.5 0.00 0.03 0.03 71 1020.6
20260903222728 21 214 4.8 14.5 0.00 0.03 0.03 72 1020.6
20260903222008 20 175 4.8 16.1 0.00 0.03 0.03 75 1020.6
20260903221513 20 213 4.8 16.1 0.00 0.03 0.03 78 1020.6
20260903221006 19 208 3.2 11.3 0.00 0.03 0.03 82 1020.5
20260903220509 18 249 3.2 9.7 0.00 0.03 0.03 84 1020.5
20260903220000 18 251 3.2 9.7 0.00 0.03 0.03 88 1020.4
20260903215500 17 206 1.6 8.0 0.00 0.03 0.03 90 1020.4
20260903214958 17 195 1.6 8.0 0.00 0.03 0.03 91 1020.3
20260903214501 16 199 1.6 6.4 0.00 0.03 0.03 93 1020.3
20260903213931 16 219 3.2 6.4 0.00 0.03 0.03 93 1020.3
20260903213412 16 185 3.2 12.9 0.00 0.03 0.03 93 1020.2
20260903213135 15 246 3.2 12.9 0.00 0.03 0.03 94 1020.1
20260903212619 15 211 1.6 9.7 0.00 0.03 0.03 94 1020.0
20260903212124 15 225 1.6 9.7 0.00 0.03 0.03 94 1019.9
20260903211626 15 234 1.6 6.4 0.00 0.03 0.03 94 1019.8
20260903210856 14 224 0.0 4.8 0.00 0.03 0.03 93 1019.8
20260903210355 14 224 0.0 4.8 0.00 0.03 0.03 93 1019.7
20260903205851 13 189 0.0 3.2 0.00 0.03 0.03 93 1019.6
20260903205351 13 189 0.0 1.6 0.00 0.03 0.03 93 1019.6
20260903204852 13 189 0.0 1.6 0.00 0.03 0.03 92 1019.4
20260903204346 13 189 0.0 0.0 0.00 0.03 0.03 92 1019.4
20260903204103 13 189 0.0 0.0 0.00 0.03 0.03 92 1019.4
20260903203342 13 189 0.0 0.0 0.00 0.03 0.03 91 1019.4
20260903203105 13 189 0.0 0.0 0.00 0.03 0.03 91 1019.5
20260903202333 13 189 0.0 0.0 0.00 0.03 0.03 91 1019.3
20260903201833 13 189 0.0 0.0 0.00 0.03 0.03 91 1019.3
20260903201332 13 189 0.0 0.0 0.00 0.03 0.03 91 1019.2
20260903200831 13 189 0.0 0.0 0.00 0.03 0.03 91 1019.1
20260903200327 13 189 0.0 0.0 0.03 0.03 0.03 91 1019.0
20260903195826 13 189 0.0 0.0 0.03 0.03 0.03 91 1018.9
20260903195325 13 189 0.0 0.0 0.03 0.03 0.03 91 1018.9
20260903194821 13 189 0.0 0.0 0.03 0.03 0.03 91 1018.8
20260903194322 13 189 0.0 0.0 0.03 0.03 0.03 91 1018.8
20260903193820 13 189 0.0 0.0 0.03 0.03 0.03 91 1018.7
20260903193316 13 189 0.0 0.0 0.03 0.03 0.03 91 1018.7
20260903193033 13 189 0.0 0.0 0.03 0.03 0.03 91 1018.6
20260903192308 13 189 0.0 0.0 0.03 0.03 0.03 91 1018.6
20260903191806 13 189 0.0 1.6 0.03 0.03 0.03 90 1018.6
20260903191307 13 189 0.0 1.6 0.03 0.03 0.03 91 1018.7
20260903190749 13 189 0.0 0.0 0.03 0.03 0.03 91 1018.7
20260903190252 13 189 0.0 0.0 0.00 0.00 0.00 91 1018.6
20260903185722 13 189 0.0 0.0 0.00 0.00 0.00 90 1018.5
20260903185210 14 189 0.0 0.0 0.00 0.00 0.00 90 1018.4
20260903184708 14 189 0.0 0.0 0.00 0.00 0.00 90 1018.3
20260903184206 14 189 0.0 0.0 0.00 0.00 0.00 90 1018.2
20260903183925 14 189 0.0 0.0 0.00 0.00 0.00 90 1018.1
20260903183203 14 189 0.0 1.6 0.00 0.00 0.00 90 1018.1
20260903182659 14 189 0.0 3.2 0.00 0.00 0.00 90 1018.1
20260903182159 14 189 0.0 3.2 0.00 0.00 0.00 90 1018.1
20260903181700 14 189 0.0 0.0 0.00 0.00 0.00 90 1018.0
20260903181154 14 189 0.0 0.0 0.00 0.00 0.00 90 1018.0
20260903180910 14 189 0.0 0.0 0.00 0.00 0.00 89 1018.0
20260903180150 15 189 0.0 0.0 0.00 0.00 0.00 89 1018.0
20260903175651 15 189 0.0 0.0 0.00 0.00 0.00 89 1017.9
20260903175128 15 189 0.0 0.0 0.00 0.00 0.00 89 1017.9
20260903174855 15 189 0.0 0.0 0.00 0.00 0.00 89 1017.9
20260903174605 15 189 0.0 1.6 0.00 0.00 0.00 89 1018.0
20260903173621 15 189 0.0 3.2 0.00 0.00 0.00 89 1017.9
20260903173120 15 189 0.0 3.2 0.00 0.00 0.00 89 1017.9
20260903172614 15 189 0.0 3.2 0.00 0.00 0.00 89 1017.9
20260903172113 15 189 0.0 3.2 0.00 0.00 0.00 89 1017.8
20260903171609 15 189 0.0 0.0 0.00 0.00 0.00 89 1017.8
20260903171108 16 189 0.0 0.0 0.00 0.00 0.00 89 1017.7
20260903170832 16 189 0.0 3.2 0.00 0.00 0.00 89 1017.8
20260903170118 16 189 0.0 3.2 0.00 0.00 0.00 89 1017.7
20260903165601 16 189 0.0 4.8 0.00 0.00 0.00 88 1017.7
20260903165100 16 189 1.6 4.8 0.00 0.00 0.00 88 1017.8
20260903164814 16 333 0.0 3.2 0.00 0.00 0.00 88 1017.9
20260903164051 16 333 0.0 0.0 0.00 0.00 0.00 88 1017.7
20260903163549 16 333 0.0 0.0 0.00 0.00 0.00 88 1017.8
20260903163309 16 333 0.0 0.0 0.00 0.00 0.00 88 1017.8
20260903162523 17 333 0.0 0.0 0.00 0.00 0.00 88 1017.9
20260903162024 17 333 0.0 0.0 0.00 0.00 0.00 88 1018.0
20260903161519 17 333 0.0 0.0 0.00 0.00 0.00 88 1017.9
20260903161018 17 333 0.0 1.6 0.00 0.00 0.00 88 1018.0
20260903160512 17 333 0.0 1.6 0.00 0.00 0.00 88 1018.0
20260903160011 17 333 0.0 1.6 0.00 0.00 0.00 88 1017.9
20260903155507 17 333 0.0 1.6 0.00 0.00 0.00 88 1017.9
20260903155006 17 333 0.0 0.0 0.00 0.00 0.00 88 1018.0
20260903154504 18 333 0.0 0.0 0.00 0.00 0.00 88 1018.0
20260903154231 18 333 0.0 0.0 0.00 0.00 0.00 88 1018.0
20260903153501 18 333 0.0 0.0 0.00 0.00 0.00 88 1018.0
20260903153218 18 333 0.0 0.0 0.00 0.00 0.00 88 1018.0
20260903152450 18 333 0.0 0.0 0.00 0.00 0.00 88 1018.1
20260903151948 18 333 0.0 0.0 0.00 0.00 0.00 88 1018.0
20260903151447 18 333 0.0 8.0 0.00 0.00 0.00 89 1018.0
20260903150949 18 333 0.0 8.0 0.00 0.00 0.00 89 1018.1
20260903150435 18 333 1.6 8.0 0.00 0.00 0.00 89 1018.1
20260903145853 18 340 1.6 8.0 0.00 0.00 0.00 89 1018.1
20260903145329 18 339 3.2 8.0 0.00 0.00 0.00 89 1018.1
20260903144829 18 345 3.2 8.0 0.00 0.00 0.00 89 1018.0
20260903144323 18 1 3.2 6.4 0.00 0.00 0.00 88 1018.1
20260903144042 18 0 1.6 4.8 0.00 0.00 0.00 88 1018.1
20260903143318 18 0 0.0 3.2 0.00 0.00 0.00 88 1018.0
20260903142816 18 0 0.0 1.6 0.00 0.00 0.00 88 1018.1
20260903142315 18 0 0.0 0.0 0.00 0.00 0.00 88 1018.1
20260903141813 18 0 0.0 0.0 0.00 0.00 0.00 87 1018.1
20260903141311 18 0 0.0 0.0 0.00 0.00 0.00 87 1018.1
20260903140813 18 0 0.0 1.6 0.00 0.00 0.00 87 1018.2
20260903140311 18 0 0.0 3.2 0.00 0.00 0.00 87 1018.1
20260903135807 18 0 0.0 3.2 0.00 0.00 0.00 87 1018.0
20260903135306 19 0 0.0 3.2 0.00 0.00 0.00 87 1018.0
20260903135242 19 0 0.0 4.8 0.00 0.00 0.00 87 1018.0
20260903134305 19 0 0.0 3.2 0.00 0.00 0.00 87 1017.9
20260903133751 19 0 0.0 3.2 0.00 0.00 0.00 87 1017.9
20260903133515 19 0 0.0 3.2 0.00 0.00 0.00 87 1018.0
20260903132749 19 0 0.0 3.2 0.00 0.00 0.00 87 1018.0
20260903132248 19 0 1.6 4.8 0.00 0.00 0.00 88 1017.9
20260903131745 19 0 3.2 9.7 0.00 0.00 0.00 88 1018.0
20260903131243 19 351 3.2 9.7 0.00 0.00 0.00 87 1018.1
20260903131229 19 8 3.2 6.4 0.00 0.00 0.00 87 1018.1
20260903130240 20 333 3.2 11.3 0.00 0.00 0.00 88 1018.1
20260903125738 20 347 3.2 11.3 0.00 0.00 0.00 88 1018.1
20260903125237 20 9 3.2 12.9 0.00 0.00 0.00 88 1018.1
20260903124735 20 352 4.8 12.9 0.00 0.00 0.00 88 1018.1
20260903124227 20 357 4.8 12.9 0.00 0.00 0.00 88 1018.0
20260903124212 20 355 4.8 14.5 0.00 0.00 0.00 88 1018.1
20260903123225 20 354 4.8 14.5 0.00 0.00 0.00 88 1018.0
20260903123205 20 337 4.8 11.3 0.00 0.00 0.00 88 1018.1
20260903122215 20 349 3.2 11.3 0.00 0.00 0.00 87 1018.1
20260903121716 20 351 3.2 8.0 0.00 0.00 0.00 87 1018.1
20260903121139 20 22 3.2 11.3 0.00 0.00 0.00 87 1018.0
20260903120610 20 338 3.2 11.3 0.00 0.00 0.00 87 1018.0
20260903120056 20 327 3.2 14.5 0.00 0.00 0.00 87 1018.0
20260903115514 20 0 3.2 14.5 0.00 0.00 0.00 87 1018.0
20260903114946 20 47 3.2 8.0 0.00 0.00 0.00 87 1018.0
20260903114638 20 343 1.6 8.0 0.00 0.00 0.00 86 1018.0
20260903114333 20 6 3.2 8.0 0.00 0.00 0.00 86 1017.9
20260903113325 20 10 3.2 9.7 0.00 0.00 0.00 86 1017.9
20260903113033 20 7 3.2 11.3 0.00 0.00 0.00 86 1017.8
20260903112230 20 16 4.8 11.3 0.00 0.00 0.00 86 1017.9
20260903111721 20 358 4.8 16.1 0.00 0.00 0.00 86 1017.8
20260903111442 20 355 4.8 16.1 0.00 0.00 0.00 87 1017.8
20260903110731 20 30 6.4 16.1 0.00 0.00 0.00 87 1017.7
20260903110216 20 358 6.4 16.1 0.00 0.00 0.00 87 1017.8
20260903105715 20 350 6.4 19.3 0.00 0.00 0.00 87 1017.7
20260903105216 20 4 6.4 19.3 0.00 0.00 0.00 87 1017.7
20260903104714 20 6 4.8 14.5 0.00 0.00 0.00 87 1017.7
20260903104208 20 17 4.8 16.1 0.00 0.00 0.00 87 1017.7
20260903103705 20 345 4.8 16.1 0.00 0.00 0.00 87 1017.7
20260903103421 20 358 4.8 12.9 0.00 0.00 0.00 87 1017.7
20260903102700 20 329 3.2 9.7 0.00 0.00 0.00 86 1017.7
20260903102157 20 48 1.6 8.0 0.00 0.00 0.00 86 1017.7
20260903101657 20 333 1.6 8.0 0.00 0.00 0.00 86 1017.7
20260903101157 20 41 1.6 6.4 0.00 0.00 0.00 85 1017.6
20260903100656 20 34 1.6 6.4 0.00 0.00 0.00 85 1017.5
20260903100419 20 13 3.2 11.3 0.00 0.00 0.00 85 1017.5
20260903095657 20 0 3.2 9.7 0.00 0.00 0.00 85 1017.5
20260903095133 20 46 4.8 12.9 0.00 0.00 0.00 85 1017.4
20260903094602 20 346 4.8 11.3 0.00 0.00 0.00 85 1017.4
20260903094034 20 345 4.8 11.3 0.00 0.00 0.00 84 1017.4
20260903093506 20 0 4.8 16.1 0.00 0.00 0.00 84 1017.4
20260903092940 20 350 4.8 16.1 0.00 0.00 0.00 84 1017.3
20260903092420 20 337 3.2 9.7 0.00 0.00 0.00 84 1017.2
20260903091922 21 339 3.2 9.7 0.00 0.00 0.00 84 1017.2
20260903091413 21 5 3.2 9.7 0.00 0.00 0.00 84 1017.1
20260903090912 21 339 3.2 16.1 0.00 0.00 0.00 84 1017.2
20260903090412 21 342 4.8 16.1 0.00 0.00 0.00 84 1017.1
20260903085913 21 2 6.4 16.1 0.00 0.00 0.00 84 1017.1
20260903085634 21 352 8.0 16.1 0.00 0.00 0.00 84 1017.1
20260903084911 21 62 6.4 16.1 0.00 0.00 0.00 84 1017.0
20260903084410 21 16 6.4 14.5 0.00 0.00 0.00 83 1017.0
20260903084400 21 32 6.4 14.5 0.00 0.00 0.00 83 1017.0
20260903083635 21 344 6.4 14.5 0.00 0.00 0.00 83 1017.0
20260903082911 21 341 6.4 14.5 0.00 0.00 0.00 83 1016.9
20260903082411 21 335 4.8 11.3 0.00 0.00 0.00 82 1016.9
20260903081911 21 349 6.4 14.5 0.00 0.00 0.00 82 1016.8
20260903081412 21 355 6.4 14.5 0.00 0.00 0.00 82 1016.7
20260903080857 21 356 4.8 12.9 0.00 0.00 0.00 82 1016.8
20260903080357 21 317 6.4 12.9 0.00 0.00 0.00 82 1016.8
20260903075857 21 324 8.0 17.7 0.00 0.00 0.00 82 1016.8
20260903075357 21 26 8.0 17.7 0.00 0.00 0.00 81 1016.7
20260903075100 21 299 6.4 17.7 0.00 0.00 0.00 80 1016.7
20260903074940 21 324 8.0 17.7 0.00 0.00 0.00 81 1016.8
20260903073859 22 0 4.8 14.5 0.00 0.00 0.00 80 1016.6
20260903073355 22 56 6.4 16.1 0.00 0.00 0.00 79 1016.6
20260903072924 22 35 6.4 17.7 0.00 0.00 0.00 78 1016.6
20260903072854 22 343 8.0 16.1 0.00 0.00 0.00 79 1016.6
20260903072549 22 343 6.4 20.9 0.00 0.00 0.00 77 1016.5
20260903071952 22 14 6.4 17.7 0.00 0.00 0.00 78 1016.5
20260903070856 22 359 6.4 20.9 0.00 0.00 0.00 77 1016.3
20260903070326 22 2 8.0 27.4 0.00 0.00 0.00 76 1016.5
20260903065829 22 350 8.0 27.4 0.00 0.00 0.00 75 1016.3
20260903065325 23 338 8.0 22.5 0.00 0.00 0.00 74 1016.3
20260903065044 23 314 8.0 22.5 0.00 0.00 0.00 73 1016.2
20260903064325 23 337 8.0 22.5 0.00 0.00 0.00 72 1016.2
20260903063824 23 345 9.7 22.5 0.00 0.00 0.00 71 1016.3
20260903063326 23 334 9.7 22.5 0.00 0.00 0.00 70 1016.3
20260903062823 23 324 9.7 20.9 0.00 0.00 0.00 69 1016.3
20260903062322 24 322 9.7 20.9 0.00 0.00 0.00 68 1016.5
20260903061823 24 320 8.0 19.3 0.00 0.00 0.00 67 1016.3
20260903061322 25 0 6.4 14.5 0.00 0.00 0.00 65 1016.5
20260903060824 25 20 6.4 14.5 0.00 0.00 0.00 65 1016.5
20260903060322 25 1 6.4 14.5 0.00 0.00 0.00 65 1016.2
20260903055823 25 6 4.8 14.5 0.00 0.00 0.00 64 1016.2
20260903055547 25 14 4.8 14.5 0.00 0.00 0.00 65 1016.2
20260903055043 25 353 6.4 19.3 0.00 0.00 0.00 63 1016.2
20260903054311 25 339 6.4 19.3 0.00 0.00 0.00 63 1016.2
20260903053810 25 335 4.8 19.3 0.00 0.00 0.00 64 1016.1
20260903053753 25 76 4.8 14.5 0.00 0.00 0.00 64 1016.1
20260903052810 26 20 6.4 14.5 0.00 0.00 0.00 64 1016.2
20260903052310 26 58 6.4 16.1 0.00 0.00 0.00 62 1016.3
20260903051808 26 346 6.4 16.1 0.00 0.00 0.00 61 1016.3
20260903051535 26 338 4.8 16.1 0.00 0.00 0.00 59 1016.3
20260903050818 26 43 4.8 11.3 0.00 0.00 0.00 60 1016.3
20260903050317 26 49 4.8 14.5 0.00 0.00 0.00 59 1016.3
20260903045804 27 330 4.8 14.5 0.00 0.00 0.00 58 1016.5
20260903045306 27 14 4.8 11.3 0.00 0.00 0.00 58 1016.6
20260903044802 27 50 4.8 11.3 0.00 0.00 0.00 57 1016.7
20260903044303 27 50 3.2 11.3 0.00 0.00 0.00 58 1016.7
20260903043801 27 49 4.8 12.9 0.00 0.00 0.00 58 1016.8
20260903043303 27 65 4.8 16.1 0.00 0.00 0.00 57 1016.9
20260903042749 27 342 4.8 16.1 0.00 0.00 0.00 56 1016.9
20260903042249 27 16 4.8 11.3 0.00 0.00 0.00 56 1016.9
20260903041747 27 4 4.8 11.3 0.00 0.00 0.00 57 1016.9
20260903041245 27 52 4.8 16.1 0.00 0.00 0.00 57 1017.0
20260903040744 27 22 6.4 16.1 0.00 0.00 0.00 57 1017.1
20260903040243 27 358 6.4 14.5 0.00 0.00 0.00 57 1017.1
20260903040008 27 37 6.4 14.5 0.00 0.00 0.00 56 1017.1
20260903035504 27 73 4.8 12.9 0.00 0.00 0.00 57 1017.1